Location: Goettingen
(51.5300°N, 9.9433°E)
Time: 12:43:34
(UTC+01:00)

ISS - Pass Details

Date: 30 November 2023
Orbit: 416 x 417 km, 51.6° (Epoch: 02 December)

Event Time Altitude Azimuth Distance (km) Brightness Sun altitude
Rises 19:03:18 0° 284° (WNW) 2,362 1.3 -25.2°
Reaches altitude 10° 19:05:33 10° 273° (W) 1,497 0.1 -25.5°
Enters shadow 19:07:41 26° 240° (WSW) 857 -1.7 -25.8°
